| time (UTC) | temp F | wind direction | speed knots | gust knots | rain 1hr in | rain 24hr in | rain mn in | humidity % | barometer mb |
| 20260505041016 | 61 | 203 | 4.3 | 10.4 | 0.00 | 0.00 | 0.00 | 73 | 1001.9 |
| 20260505040017 | 60 | 203 | 3.5 | 5.2 | 0.00 | 0.00 | 0.00 | 72 | 1001.8 |
| 20260505035017 | 60 | 158 | 3.5 | 6.1 | 0.00 | 0.00 | 0.00 | 72 | 1001.8 |
| 20260505034017 | 60 | 203 | 3.5 | 5.2 | 0.00 | 0.00 | 0.00 | 71 | 1001.9 |
| 20260505033017 | 60 | 203 | 2.6 | 3.5 | 0.00 | 0.00 | 0.00 | 70 | 1002.2 |
| 20260505032037 | 60 | 225 | 1.7 | 2.6 | 0.00 | 0.00 | 0.00 | 68 | 1002.4 |
| 20260505031016 | 60 | 180 | 4.3 | 7.8 | 0.00 | 0.00 | 0.00 | 68 | 1002.4 |
| 20260505030017 | 60 | 225 | 2.6 | 3.5 | 0.00 | 0.00 | 0.00 | 64 | 1002.6 |
| 20260505025017 | 60 | 180 | 2.6 | 5.2 | 0.00 | 0.00 | 0.00 | 62 | 1002.6 |
| 20260505024058 | 60 | 225 | 2.6 | 4.3 | 0.00 | 0.00 | 0.00 | 65 | 1002.5 |
| 20260505023017 | 58 | 248 | 3.5 | 10.4 | 0.00 | 0.00 | 0.00 | 65 | 1002.5 |
| 20260505022016 | 58 | 203 | 1.7 | 3.5 | 0.00 | 0.00 | 0.00 | 67 | 1002.4 |
| 20260505021016 | 57 | 180 | 2.6 | 5.2 | 0.00 | 0.00 | 0.00 | 67 | 1002.4 |
| 20260505020017 | 57 | 180 | 1.7 | 2.6 | 0.00 | 0.00 | 0.00 | 68 | 1002.4 |
| 20260505015037 | 57 | 135 | 1.7 | 2.6 | 0.00 | 0.00 | 0.00 | 68 | 1002.4 |
| 20260505014016 | 57 | 203 | 2.6 | 5.2 | 0.00 | 0.00 | 0.00 | 69 | 1002.4 |
| 20260505013017 | 56 | 225 | 0.9 | 3.5 | 0.00 | 0.00 | 0.00 | 71 | 1002.5 |
| 20260505012036 | 56 | 203 | 0.9 | 1.7 | 0.00 | 0.00 | 0.00 | 71 | 1002.6 |
| 20260505011016 | 57 | 0.0 | 0.9 | 0.00 | 0.00 | 0.00 | 68 | 1002.5 | |
| 20260505010037 | 58 | 203 | 0.9 | 0.9 | 0.00 | 0.00 | 0.00 | 67 | 1002.4 |
| 20260505005016 | 60 | 0.0 | 1.7 | 0.00 | 0.00 | 0.00 | 66 | 1002.4 | |
| 20260505004016 | 61 | 203 | 0.9 | 1.7 | 0.00 | 0.00 | 0.00 | 61 | 1002.4 |
| 20260505003016 | 62 | 203 | 0.9 | 1.7 | 0.00 | 0.00 | 0.00 | 59 | 1002.4 |
| 20260505002037 | 64 | 203 | 0.9 | 3.5 | 0.00 | 0.00 | 0.00 | 58 | 1002.5 |
| 20260505001016 | 65 | 180 | 0.9 | 1.7 | 0.00 | 0.00 | 0.00 | 54 | 1002.6 |
| 20260505000016 | 67 | 203 | 2.6 | 4.3 | 0.00 | 0.01 | 0.00 | 52 | 1002.5 |
| 20260504235016 | 68 | 203 | 0.9 | 2.6 | 0.00 | 0.01 | 0.00 | 51 | 1002.5 |
| 20260504234016 | 68 | 248 | 1.7 | 3.5 | 0.00 | 0.01 | 0.00 | 49 | 1002.5 |
| 20260504233016 | 69 | 248 | 6.1 | 9.6 | 0.00 | 0.01 | 0.00 | 48 | 1002.6 |
| 20260504232016 | 69 | 248 | 6.1 | 8.7 | 0.00 | 0.01 | 0.00 | 46 | 1002.6 |
| 20260504231018 | 70 | 248 | 4.3 | 7.0 | 0.00 | 0.01 | 0.00 | 47 | 1002.6 |
| 20260504230018 | 70 | 225 | 3.5 | 5.2 | 0.00 | 0.02 | 0.00 | 46 | 1002.6 |
| 20260504225016 | 70 | 248 | 2.6 | 6.1 | 0.00 | 0.02 | 0.00 | 43 | 1002.7 |
| 20260504224021 | 71 | 225 | 5.2 | 9.6 | 0.00 | 0.02 | 0.00 | 41 | 1002.7 |
| 20260504223056 | 71 | 248 | 6.1 | 8.7 | 0.00 | 0.02 | 0.00 | 41 | 1002.8 |
| 20260504222016 | 71 | 248 | 5.2 | 9.6 | 0.00 | 0.02 | 0.00 | 42 | 1002.7 |
| 20260504221016 | 71 | 248 | 9.6 | 13.9 | 0.00 | 0.02 | 0.00 | 40 | 1002.7 |
| 20260504220016 | 71 | 203 | 7.0 | 10.4 | 0.00 | 0.02 | 0.00 | 40 | 1002.8 |
| 20260504215016 | 73 | 248 | 7.8 | 12.2 | 0.00 | 0.02 | 0.00 | 40 | 1002.9 |
| 20260504214016 | 73 | 248 | 9.6 | 14.8 | 0.00 | 0.02 | 0.00 | 39 | 1002.9 |
| 20260504213016 | 73 | 248 | 6.1 | 8.7 | 0.00 | 0.02 | 0.00 | 44 | 1002.8 |
| 20260504212016 | 73 | 225 | 4.3 | 8.7 | 0.00 | 0.02 | 0.00 | 45 | 1002.8 |
| 20260504211120 | 73 | 225 | 7.8 | 13.9 | 0.00 | 0.02 | 0.00 | 45 | 1002.8 |
| 20260504210018 | 74 | 225 | 7.8 | 11.3 | 0.00 | 0.02 | 0.00 | 41 | 1002.9 |
| 20260504205016 | 74 | 225 | 7.0 | 11.3 | 0.00 | 0.02 | 0.00 | 44 | 1003.0 |
| 20260504204017 | 73 | 203 | 7.8 | 13.9 | 0.00 | 0.02 | 0.00 | 45 | 1003.0 |
| 20260504203038 | 74 | 225 | 6.1 | 9.6 | 0.00 | 0.02 | 0.00 | 44 | 1003.1 |
| 20260504202037 | 74 | 225 | 5.2 | 7.0 | 0.00 | 0.02 | 0.00 | 44 | 1003.1 |
| 20260504201016 | 73 | 203 | 7.8 | 11.3 | 0.00 | 0.02 | 0.00 | 45 | 1003.2 |
| 20260504200036 | 74 | 248 | 7.8 | 11.3 | 0.00 | 0.02 | 0.00 | 44 | 1003.3 |
| 20260504195016 | 74 | 248 | 6.1 | 11.3 | 0.00 | 0.02 | 0.00 | 49 | 1003.4 |
| 20260504194016 | 74 | 225 | 6.1 | 9.6 | 0.00 | 0.02 | 0.00 | 46 | 1003.7 |
| 20260504193056 | 73 | 225 | 7.8 | 13.0 | 0.00 | 0.02 | 0.00 | 47 | 1003.7 |
| 20260504192016 | 73 | 225 | 9.6 | 14.8 | 0.00 | 0.02 | 0.00 | 46 | 1003.9 |
| 20260504191017 | 72 | 248 | 7.0 | 12.2 | 0.00 | 0.02 | 0.00 | 49 | 1004.1 |
| 20260504190016 | 72 | 225 | 13.0 | 20.9 | 0.00 | 0.02 | 0.00 | 47 | 1004.3 |
| 20260504185016 | 72 | 158 | 7.0 | 13.9 | 0.00 | 0.02 | 0.00 | 53 | 1004.4 |
| 20260504184016 | 71 | 225 | 10.4 | 14.8 | 0.00 | 0.02 | 0.00 | 50 | 1004.5 |
| 20260504183016 | 71 | 203 | 5.2 | 7.8 | 0.00 | 0.02 | 0.00 | 55 | 1004.6 |
| 20260504182016 | 70 | 225 | 8.7 | 15.6 | 0.00 | 0.02 | 0.00 | 55 | 1004.7 |
| 20260504181036 | 70 | 248 | 8.7 | 14.8 | 0.00 | 0.02 | 0.00 | 53 | 1004.8 |
| 20260504180021 | 69 | 225 | 9.6 | 15.6 | 0.00 | 0.02 | 0.00 | 54 | 1005.0 |
| 20260504175016 | 69 | 248 | 9.6 | 17.4 | 0.00 | 0.02 | 0.00 | 55 | 1005.0 |
| 20260504174016 | 68 | 225 | 7.8 | 11.3 | 0.00 | 0.02 | 0.00 | 56 | 1005.0 |
| 20260504173016 | 68 | 248 | 7.8 | 14.8 | 0.00 | 0.02 | 0.00 | 57 | 1005.2 |
| 20260504172016 | 68 | 203 | 5.2 | 7.8 | 0.00 | 0.02 | 0.00 | 58 | 1005.2 |
| 20260504171016 | 67 | 225 | 9.6 | 18.2 | 0.00 | 0.02 | 0.00 | 55 | 1005.2 |
| 20260504151016 | 63 | 248 | 8.7 | 12.2 | 0.00 | 0.02 | 0.00 | 56 | 1006.2 |
| 20260504141017 | 61 | 248 | 6.1 | 8.7 | 0.00 | 0.02 | 0.00 | 59 | 1006.1 |
| 20260504130115 | 59 | 225 | 7.0 | 18.2 | 0.00 | 0.02 | 0.00 | 58 | 1006.3 |
| 20260504120115 | 53 | 225 | 6.1 | 11.3 | 0.00 | 0.02 | 0.00 | 65 | 1006.4 |
| 20260504110135 | 52 | 248 | 6.1 | 10.4 | 0.00 | 0.02 | 0.00 | 64 | 1006.4 |
| 20260504100115 | 51 | 225 | 3.5 | 4.3 | 0.00 | 0.02 | 0.00 | 64 | 1006.2 |
| 20260504090115 | 50 | 225 | 1.7 | 3.5 | 0.00 | 0.02 | 0.00 | 68 | 1006.4 |
| 20260504081115 | 50 | 248 | 3.5 | 5.2 | 0.00 | 0.02 | 0.00 | 72 | 1006.9 |
| 20260504080115 | 50 | 225 | 4.3 | 7.0 | 0.00 | 0.02 | 0.00 | 72 | 1007.1 |
| 20260504070117 | 51 | 203 | 4.3 | 8.7 | 0.00 | 0.02 | 0.00 | 71 | 1007.6 |
| 20260504060117 | 52 | 203 | 4.3 | 7.0 | 0.00 | 0.02 | 0.00 | 70 | 1008.1 |
| 20260504050118 | 54 | 225 | 4.3 | 7.0 | 0.00 | 0.02 | 0.00 | 60 | 1008.4 |
| 20260504045117 | 54 | 225 | 6.1 | 9.6 | 0.00 | 0.02 | 0.00 | 58 | 1008.4 |
| 20260504044117 | 55 | 248 | 6.1 | 8.7 | 0.00 | 0.02 | 0.00 | 57 | 1008.5 |
| 20260504043135 | 55 | 225 | 6.1 | 7.8 | 0.00 | 0.02 | 0.00 | 57 | 1008.5 |
| 20260504042117 | 55 | 203 | 3.5 | 4.3 | 0.00 | 0.02 | 0.00 | 57 | 1008.5 |